Time,TemperatureF,DewpointF,PressureIn,WindDirection,WindDirectionDegrees,WindSpeedMPH,WindSpeedGustMPH,Humidity,HourlyPrecipIn,Conditions,Clouds,dailyrainin,SoftwareType,DateUTC
2013-04-17 00:00:00,52.3,51.0,29.61,WSW,247,5.1,6.3,98,0.00,,,0.00,Rainwise IP-100,2013-04-17 04:00:00,
2013-04-17 00:05:00,52.3,51.0,29.61,SSW,202,3.7,6.1,98,0.00,,,0.00,Rainwise IP-100,2013-04-17 04:05:00,
2013-04-17 00:10:00,52.0,51.0,29.61,SW,225,3.3,5.1,98,0.00,,,0.00,Rainwise IP-100,2013-04-17 04:10:00,
2013-04-17 00:15:00,51.8,51.0,29.61,SSW,202,3.7,4.2,98,0.00,,,0.00,Rainwise IP-100,2013-04-17 04:15:00,
2013-04-17 00:20:00,51.8,51.0,29.62,WSW,247,3.5,7.9,97,0.00,,,0.00,Rainwise IP-100,2013-04-17 04:20:00,
2013-04-17 00:25:00,52.1,50.5,29.62,SSW,202,2.8,9.1,96,0.00,,,0.00,Rainwise IP-100,2013-04-17 04:25:00,
2013-04-17 00:30:00,52.2,50.5,29.62,SSW,202,4.0,7.2,94,0.00,,,0.00,Rainwise IP-100,2013-04-17 04:30:00,
2013-04-17 00:35:00,52.1,50.0,29.63,SSW,202,2.6,5.8,93,0.00,,,0.00,Rainwise IP-100,2013-04-17 04:35:00,
2013-04-17 00:40:00,52.2,50.0,29.64,WSW,247,3.5,6.3,92,0.00,,,0.00,Rainwise IP-100,2013-04-17 04:40:00,
2013-04-17 00:45:00,52.2,49.0,29.64,WNW,292,0.0,6.8,91,0.00,,,0.00,Rainwise IP-100,2013-04-17 04:45:00,
2013-04-17 00:50:00,52.1,49.0,29.65,SSW,202,2.6,2.6,90,0.00,,,0.00,Rainwise IP-100,2013-04-17 04:50:00,
2013-04-17 00:55:00,51.8,49.0,29.64,SSE,157,1.6,5.4,90,0.00,,,0.00,Rainwise IP-100,2013-04-17 04:55:00,
2013-04-17 01:00:00,51.6,49.0,29.65,SW,225,2.1,7.0,89,0.00,,,0.00,Rainwise IP-100,2013-04-17 05:00:00,
2013-04-17 01:06:00,51.5,48.0,29.65,SSE,157,4.0,6.1,88,0.00,,,0.00,Rainwise IP-100,2013-04-17 05:06:00,
2013-04-17 01:11:00,51.5,48.0,29.65,SE,135,1.6,3.3,88,0.00,,,0.00,Rainwise IP-100,2013-04-17 05:11:00,
2013-04-17 01:16:00,51.4,47.5,29.65,NNE,22,4.0,6.5,87,0.00,,,0.00,Rainwise IP-100,2013-04-17 05:16:00,
2013-04-17 01:21:00,51.0,47.5,29.66,NW,315,2.3,4.7,88,0.00,,,0.00,Rainwise IP-100,2013-04-17 05:21:00,
2013-04-17 01:26:00,50.6,47.5,29.66,NNW,337,4.9,4.9,89,0.00,,,0.00,Rainwise IP-100,2013-04-17 05:26:00,
2013-04-17 01:31:00,50.3,47.5,29.66,NNE,22,5.4,8.2,89,0.00,,,0.00,Rainwise IP-100,2013-04-17 05:31:00,
2013-04-17 01:36:00,50.3,47.0,29.67,ENE,67,2.6,9.3,87,0.00,,,0.00,Rainwise IP-100,2013-04-17 05:36:00,
2013-04-17 01:41:00,50.3,46.0,29.67,North,360,3.7,7.2,85,0.00,,,0.00,Rainwise IP-100,2013-04-17 05:41:00,
2013-04-17 01:45:00,50.2,45.0,29.67,NNE,22,5.1,8.4,84,0.00,,,0.00,Rainwise IP-100,2013-04-17 05:45:00,
2013-04-17 01:47:00,50.1,45.0,29.67,NNW,337,6.5,8.4,84,0.00,,,0.00,Rainwise IP-100,2013-04-17 05:47:00,
2013-04-17 01:52:00,49.8,45.0,29.67,NNE,22,1.4,6.8,83,0.00,,,0.00,Rainwise IP-100,2013-04-17 05:52:00,
2013-04-17 01:57:00,49.4,44.0,29.67,North,360,2.1,4.7,84,0.00,,,0.00,Rainwise IP-100,2013-04-17 05:57:00,
2013-04-17 02:02:00,48.9,45.0,29.67,NNE,22,0.0,4.0,85,0.00,,,0.00,Rainwise IP-100,2013-04-17 06:02:00,
2013-04-17 02:07:00,48.5,45.0,29.68,NNE,22,0.0,2.1,86,0.00,,,0.00,Rainwise IP-100,2013-04-17 06:07:00,
2013-04-17 02:12:00,48.2,45.0,29.68,NNE,22,0.0,1.6,87,0.00,,,0.00,Rainwise IP-100,2013-04-17 06:12:00,
2013-04-17 02:17:00,47.8,45.0,29.68,NNW,337,1.9,2.3,87,0.00,,,0.00,Rainwise IP-100,2013-04-17 06:17:00,
2013-04-17 02:21:00,47.6,44.0,29.68,WNW,292,2.1,4.4,88,0.00,,,0.00,Rainwise IP-100,2013-04-17 06:21:00,
2013-04-17 02:26:00,47.4,44.0,29.69,WNW,292,0.0,2.3,87,0.00,,,0.00,Rainwise IP-100,2013-04-17 06:26:00,
2013-04-17 02:31:00,47.0,43.0,29.68,WNW,292,0.0,0.0,88,0.00,,,0.00,Rainwise IP-100,2013-04-17 06:31:00,
2013-04-17 02:36:00,46.2,43.0,29.68,NNE,22,1.4,2.6,90,0.00,,,0.00,Rainwise IP-100,2013-04-17 06:36:00,
2013-04-17 02:41:00,45.7,43.0,29.68,NNE,22,0.0,1.9,91,0.00,,,0.00,Rainwise IP-100,2013-04-17 06:41:00,
2013-04-17 02:46:00,45.6,44.0,29.68,NNE,22,0.0,0.0,92,0.00,,,0.00,Rainwise IP-100,2013-04-17 06:46:00,
2013-04-17 02:51:00,45.4,43.0,29.68,NNE,22,0.0,0.0,93,0.00,,,0.00,Rainwise IP-100,2013-04-17 06:51:00,
2013-04-17 02:56:00,45.1,43.0,29.69,NNE,22,0.0,0.0,94,0.00,,,0.00,Rainwise IP-100,2013-04-17 06:56:00,
2013-04-17 03:02:00,44.9,43.0,29.69,NNE,22,0.0,0.0,94,0.00,,,0.00,Rainwise IP-100,2013-04-17 07:02:00,
2013-04-17 03:07:00,44.8,44.0,29.69,NNE,22,3.0,3.5,95,0.00,,,0.00,Rainwise IP-100,2013-04-17 07:07:00,
2013-04-17 03:12:00,44.7,44.0,29.69,NNW,337,3.5,4.2,95,0.00,,,0.00,Rainwise IP-100,2013-04-17 07:12:00,
2013-04-17 03:17:00,44.7,44.0,29.70,NW,315,0.0,3.7,96,0.00,,,0.00,Rainwise IP-100,2013-04-17 07:17:00,
2013-04-17 03:22:00,44.7,44.0,29.70,WNW,292,1.2,2.1,96,0.00,,,0.00,Rainwise IP-100,2013-04-17 07:22:00,
2013-04-17 03:27:00,44.8,44.0,29.70,WNW,292,0.0,1.2,96,0.00,,,0.00,Rainwise IP-100,2013-04-17 07:27:00,
2013-04-17 03:32:00,44.7,44.0,29.70,NNW,337,1.2,3.5,95,0.00,,,0.00,Rainwise IP-100,2013-04-17 07:32:00,
2013-04-17 03:37:00,44.6,44.0,29.70,North,360,0.0,2.6,95,0.00,,,0.00,Rainwise IP-100,2013-04-17 07:37:00,
2013-04-17 03:42:00,44.6,44.0,29.71,WSW,247,1.4,2.8,95,0.00,,,0.00,Rainwise IP-100,2013-04-17 07:42:00,
2013-04-17 03:47:00,44.8,43.0,29.71,WNW,292,3.5,4.7,93,0.00,,,0.00,Rainwise IP-100,2013-04-17 07:47:00,
2013-04-17 03:52:00,45.3,43.0,29.71,ENE,67,1.9,6.1,92,0.00,,,0.00,Rainwise IP-100,2013-04-17 07:52:00,
2013-04-17 03:57:00,45.1,43.0,29.72,NW,315,1.9,3.3,92,0.00,,,0.00,Rainwise IP-100,2013-04-17 07:57:00,
2013-04-17 04:02:00,44.9,43.0,29.71,NNW,337,3.3,7.0,92,0.00,,,0.00,Rainwise IP-100,2013-04-17 08:02:00,
2013-04-17 04:07:00,45.3,42.0,29.71,NNE,22,1.2,6.8,90,0.00,,,0.00,Rainwise IP-100,2013-04-17 08:07:00,
2013-04-17 04:13:00,45.7,42.0,29.72,WNW,292,3.5,10.5,88,0.00,,,0.00,Rainwise IP-100,2013-04-17 08:13:00,
2013-04-17 04:18:00,46.0,41.0,29.72,NNE,22,0.0,6.8,85,0.00,,,0.00,Rainwise IP-100,2013-04-17 08:18:00,
2013-04-17 04:23:00,46.1,40.0,29.72,NNW,337,3.3,6.5,82,0.00,,,0.00,Rainwise IP-100,2013-04-17 08:23:00,
2013-04-17 04:28:00,45.9,40.0,29.72,NNW,337,0.0,6.3,80,0.00,,,0.00,Rainwise IP-100,2013-04-17 08:28:00,
2013-04-17 04:33:00,45.8,39.0,29.72,North,360,2.1,7.7,77,0.00,,,0.00,Rainwise IP-100,2013-04-17 08:33:00,
2013-04-17 04:38:00,45.6,39.0,29.72,NNE,22,0.0,3.3,76,0.00,,,0.00,Rainwise IP-100,2013-04-17 08:38:00,
2013-04-17 04:43:00,45.0,38.0,29.72,NNE,22,0.0,2.8,77,0.00,,,0.00,Rainwise IP-100,2013-04-17 08:43:00,
2013-04-17 04:48:00,44.6,38.0,29.72,NNE,22,0.0,1.4,77,0.00,,,0.00,Rainwise IP-100,2013-04-17 08:48:00,
2013-04-17 04:53:00,44.2,37.0,29.73,NNE,22,0.0,0.0,77,0.00,,,0.00,Rainwise IP-100,2013-04-17 08:53:00,
2013-04-17 04:58:00,43.7,38.0,29.72,NNE,22,0.0,1.2,78,0.00,,,0.00,Rainwise IP-100,2013-04-17 08:58:00,
2013-04-17 05:03:00,43.1,37.0,29.73,NNE,22,0.0,0.0,79,0.00,,,0.00,Rainwise IP-100,2013-04-17 09:03:00,
2013-04-17 05:08:00,42.5,38.0,29.72,NNE,22,0.0,1.9,81,0.00,,,0.00,Rainwise IP-100,2013-04-17 09:08:00,
2013-04-17 05:13:00,41.9,37.0,29.72,NNE,22,0.0,0.0,83,0.00,,,0.00,Rainwise IP-100,2013-04-17 09:13:00,
2013-04-17 05:18:00,41.4,37.0,29.72,NNE,22,0.0,0.0,85,0.00,,,0.00,Rainwise IP-100,2013-04-17 09:18:00,
2013-04-17 05:23:00,40.9,37.0,29.73,NNE,22,0.0,1.4,86,0.00,,,0.00,Rainwise IP-100,2013-04-17 09:23:00,
2013-04-17 05:29:00,40.5,38.0,29.73,NNE,22,0.0,0.0,87,0.00,,,0.00,Rainwise IP-100,2013-04-17 09:29:00,
2013-04-17 05:34:00,40.2,37.0,29.73,NNE,22,0.0,0.0,88,0.00,,,0.00,Rainwise IP-100,2013-04-17 09:34:00,
2013-04-17 05:39:00,40.0,37.0,29.73,NNE,22,0.0,0.0,89,0.00,,,0.00,Rainwise IP-100,2013-04-17 09:39:00,
2013-04-17 05:44:00,39.7,38.0,29.73,NNE,22,0.0,0.0,90,0.00,,,0.00,Rainwise IP-100,2013-04-17 09:44:00,
2013-04-17 05:49:00,39.6,38.0,29.73,NW,315,0.0,6.1,90,0.00,,,0.00,Rainwise IP-100,2013-04-17 09:49:00,
2013-04-17 05:54:00,39.8,37.0,29.73,NW,315,1.4,4.0,89,0.00,,,0.00,Rainwise IP-100,2013-04-17 09:54:00,
2013-04-17 05:59:00,40.0,37.0,29.74,NNW,337,2.8,4.2,88,0.00,,,0.00,Rainwise IP-100,2013-04-17 09:59:00,
2013-04-17 06:04:00,39.8,37.0,29.73,NNW,337,1.4,4.7,88,0.00,,,0.00,Rainwise IP-100,2013-04-17 10:04:00,
2013-04-17 06:09:00,39.4,36.0,29.74,NNW,337,0.0,2.6,88,0.00,,,0.00,Rainwise IP-100,2013-04-17 10:09:00,
2013-04-17 06:14:00,38.9,36.0,29.74,NNE,22,0.0,2.1,89,0.00,,,0.00,Rainwise IP-100,2013-04-17 10:14:00,
2013-04-17 06:19:00,38.5,37.0,29.74,North,360,0.0,1.2,90,0.00,,,0.00,Rainwise IP-100,2013-04-17 10:19:00,
2013-04-17 06:24:00,38.3,36.0,29.75,North,360,0.0,1.2,90,0.00,,,0.00,Rainwise IP-100,2013-04-17 10:24:00,
2013-04-17 06:29:00,38.2,36.0,29.74,North,360,0.0,1.9,91,0.00,,,0.00,Rainwise IP-100,2013-04-17 10:29:00,
2013-04-17 06:34:00,38.3,36.0,29.75,North,360,0.0,1.9,91,0.00,,,0.00,Rainwise IP-100,2013-04-17 10:34:00,
2013-04-17 06:40:00,38.4,36.0,29.75,North,360,0.0,0.0,92,0.00,,,0.00,Rainwise IP-100,2013-04-17 10:40:00,
2013-04-17 06:45:00,38.6,37.0,29.75,North,360,0.0,1.4,92,0.00,,,0.00,Rainwise IP-100,2013-04-17 10:45:00,
2013-04-17 06:50:00,39.0,37.0,29.76,North,360,0.0,0.0,92,0.00,,,0.00,Rainwise IP-100,2013-04-17 10:50:00,
2013-04-17 06:55:00,39.7,39.0,29.76,North,360,0.0,0.0,94,0.00,,,0.00,Rainwise IP-100,2013-04-17 10:55:00,
2013-04-17 07:00:00,40.4,39.0,29.76,SW,225,0.0,1.9,95,0.00,,,0.00,Rainwise IP-100,2013-04-17 11:00:00,
2013-04-17 07:05:00,41.4,40.0,29.77,SW,225,0.0,0.0,96,0.00,,,0.00,Rainwise IP-100,2013-04-17 11:05:00,
2013-04-17 07:10:00,42.1,41.0,29.77,ENE,67,1.6,2.8,97,0.00,,,0.00,Rainwise IP-100,2013-04-17 11:10:00,
2013-04-17 07:15:00,42.7,42.0,29.77,ENE,67,1.4,2.3,98,0.00,,,0.00,Rainwise IP-100,2013-04-17 11:15:00,
2013-04-17 07:20:00,42.3,41.0,29.77,ENE,67,1.9,3.0,98,0.00,,,0.00,Rainwise IP-100,2013-04-17 11:20:00,
2013-04-17 07:25:00,42.2,41.0,29.77,NNE,22,1.4,3.0,98,0.00,,,0.00,Rainwise IP-100,2013-04-17 11:25:00,
2013-04-17 07:30:00,43.0,42.0,29.77,NE,45,1.4,2.8,98,0.00,,,0.00,Rainwise IP-100,2013-04-17 11:30:00,
2013-04-17 07:35:00,43.6,43.0,29.78,NNE,22,1.9,4.4,97,0.00,,,0.00,Rainwise IP-100,2013-04-17 11:35:00,
2013-04-17 07:40:00,44.4,43.0,29.78,ENE,67,2.1,4.4,97,0.00,,,0.00,Rainwise IP-100,2013-04-17 11:40:00,
2013-04-17 07:45:00,44.6,44.0,29.78,East,90,1.6,4.0,98,0.00,,,0.00,Rainwise IP-100,2013-04-17 11:45:00,
2013-04-17 07:50:00,44.6,44.0,29.78,NNE,22,2.1,4.0,97,0.00,,,0.00,Rainwise IP-100,2013-04-17 11:50:00,
2013-04-17 07:56:00,44.6,44.0,29.79,NE,45,4.2,4.2,97,0.00,,,0.00,Rainwise IP-100,2013-04-17 11:56:00,
2013-04-17 08:01:00,44.8,43.0,29.79,North,360,4.0,8.2,94,0.00,,,0.00,Rainwise IP-100,2013-04-17 12:01:00,
2013-04-17 08:06:00,45.4,42.0,29.79,North,360,6.8,10.3,91,0.00,,,0.00,Rainwise IP-100,2013-04-17 12:06:00,
2013-04-17 08:11:00,46.4,41.0,29.78,NNE,22,9.6,15.4,85,0.00,,,0.00,Rainwise IP-100,2013-04-17 12:11:00,
2013-04-17 08:16:00,47.1,39.0,29.79,North,360,8.4,10.3,75,0.00,,,0.00,Rainwise IP-100,2013-04-17 12:16:00,
2013-04-17 08:21:00,47.5,38.0,29.79,NNE,22,12.1,13.3,69,0.00,,,0.00,Rainwise IP-100,2013-04-17 12:21:00,
2013-04-17 08:26:00,47.8,37.0,29.79,North,360,10.0,14.7,64,0.00,,,0.00,Rainwise IP-100,2013-04-17 12:26:00,
2013-04-17 08:31:00,47.8,35.0,29.79,NNW,337,9.8,17.0,60,0.06,,,0.01,Rainwise IP-100,2013-04-17 12:31:00,
2013-04-17 08:36:00,47.9,36.0,29.79,North,360,7.2,13.5,61,0.06,,,0.01,Rainwise IP-100,2013-04-17 12:36:00,
2013-04-17 08:41:00,48.2,36.0,29.79,NNE,22,6.1,13.8,61,0.00,,,0.01,Rainwise IP-100,2013-04-17 12:41:00,
2013-04-17 08:46:00,48.3,35.0,29.79,North,360,10.5,17.0,58,0.00,,,0.01,Rainwise IP-100,2013-04-17 12:46:00,
2013-04-17 08:51:00,48.3,33.0,29.79,NNE,22,12.4,25.2,56,0.00,,,0.01,Rainwise IP-100,2013-04-17 12:51:00,
2013-04-17 08:56:00,48.2,33.0,29.78,NNE,22,9.8,16.1,55,0.00,,,0.01,Rainwise IP-100,2013-04-17 12:56:00,
2013-04-17 09:01:00,48.4,33.0,29.80,NNW,337,8.2,18.0,55,0.00,,,0.01,Rainwise IP-100,2013-04-17 13:01:00,
2013-04-17 09:06:00,48.8,33.0,29.79,ENE,67,4.9,13.5,55,0.00,,,0.01,Rainwise IP-100,2013-04-17 13:06:00,
2013-04-17 09:12:00,49.2,33.0,29.80,ENE,67,4.9,12.6,55,0.00,,,0.01,Rainwise IP-100,2013-04-17 13:12:00,
2013-04-17 09:17:00,49.6,35.0,29.80,ENE,67,8.9,15.2,55,0.00,,,0.01,Rainwise IP-100,2013-04-17 13:17:00,
2013-04-17 09:22:00,49.4,33.0,29.78,NNE,22,12.4,14.5,53,0.00,,,0.01,Rainwise IP-100,2013-04-17 13:22:00,
2013-04-17 09:27:00,49.4,32.0,29.79,NNE,22,9.6,13.8,51,0.00,,,0.01,Rainwise IP-100,2013-04-17 13:27:00,
2013-04-17 09:32:00,49.6,32.0,29.79,ESE,112,4.4,20.8,50,0.00,,,0.01,Rainwise IP-100,2013-04-17 13:32:00,
2013-04-17 09:37:00,49.9,32.0,29.79,NNE,22,6.1,19.8,50,0.00,,,0.01,Rainwise IP-100,2013-04-17 13:37:00,
2013-04-17 09:42:00,50.1,32.0,29.80,NE,45,6.8,11.9,50,0.00,,,0.01,Rainwise IP-100,2013-04-17 13:42:00,
2013-04-17 09:47:00,50.5,33.0,29.79,North,360,11.0,14.2,50,0.00,,,0.01,Rainwise IP-100,2013-04-17 13:47:00,
2013-04-17 09:52:00,50.7,32.0,29.80,NE,45,1.6,15.4,49,0.00,,,0.01,Rainwise IP-100,2013-04-17 13:52:00,
2013-04-17 09:57:00,50.8,32.0,29.80,NNW,337,6.3,13.5,48,0.00,,,0.01,Rainwise IP-100,2013-04-17 13:57:00,
2013-04-17 10:02:00,50.7,32.0,29.80,North,360,5.4,15.9,48,0.00,,,0.01,Rainwise IP-100,2013-04-17 14:02:00,
2013-04-17 10:07:00,50.6,31.0,29.80,NNW,337,1.6,15.6,47,0.00,,,0.01,Rainwise IP-100,2013-04-17 14:07:00,
2013-04-17 10:12:00,50.6,31.0,29.80,NNE,22,10.0,17.7,47,0.00,,,0.01,Rainwise IP-100,2013-04-17 14:12:00,
2013-04-17 10:17:00,50.8,32.0,29.80,NNE,22,5.1,18.9,47,0.00,,,0.01,Rainwise IP-100,2013-04-17 14:17:00,
2013-04-17 10:22:00,50.9,31.0,29.80,North,360,12.4,19.6,46,0.00,,,0.01,Rainwise IP-100,2013-04-17 14:22:00,
2013-04-17 10:28:00,51.0,31.0,29.79,ENE,67,6.3,19.4,46,0.00,,,0.01,Rainwise IP-100,2013-04-17 14:28:00,
2013-04-17 10:33:00,51.1,31.0,29.80,North,360,9.6,21.5,45,0.00,,,0.01,Rainwise IP-100,2013-04-17 14:33:00,
2013-04-17 10:38:00,51.3,31.0,29.79,NW,315,6.3,17.0,44,0.00,,,0.01,Rainwise IP-100,2013-04-17 14:38:00,
2013-04-17 10:43:00,51.5,31.0,29.80,ESE,112,1.6,10.3,44,0.00,,,0.01,Rainwise IP-100,2013-04-17 14:43:00,
2013-04-17 10:48:00,51.6,31.0,29.80,NNE,22,14.2,14.7,43,0.00,,,0.01,Rainwise IP-100,2013-04-17 14:48:00,
2013-04-17 10:53:00,51.9,31.0,29.80,NNE,22,7.7,19.6,43,0.00,,,0.01,Rainwise IP-100,2013-04-17 14:53:00,
2013-04-17 10:58:00,51.9,29.0,29.80,North,360,5.6,22.4,42,0.00,,,0.01,Rainwise IP-100,2013-04-17 14:58:00,
2013-04-17 11:03:00,51.9,29.0,29.80,NNE,22,5.4,14.9,41,0.00,,,0.01,Rainwise IP-100,2013-04-17 15:03:00,
2013-04-17 11:08:00,52.3,29.0,29.80,NE,45,10.7,14.0,42,0.00,,,0.01,Rainwise IP-100,2013-04-17 15:08:00,
2013-04-17 11:13:00,52.3,29.0,29.80,NNW,337,7.0,18.9,41,0.00,,,0.01,Rainwise IP-100,2013-04-17 15:13:00,
2013-04-17 11:18:00,52.1,29.0,29.80,NNE,22,6.5,19.1,40,0.00,,,0.01,Rainwise IP-100,2013-04-17 15:18:00,
2013-04-17 11:23:00,52.2,28.0,29.80,NNE,22,14.5,22.9,39,0.00,,,0.01,Rainwise IP-100,2013-04-17 15:23:00,
2013-04-17 11:28:00,52.2,28.0,29.80,NE,45,13.8,22.4,39,0.00,,,0.01,Rainwise IP-100,2013-04-17 15:28:00,
2013-04-17 11:33:00,52.2,28.0,29.79,NNW,337,15.6,22.2,39,0.00,,,0.01,Rainwise IP-100,2013-04-17 15:33:00,
2013-04-17 11:38:00,52.5,29.0,29.80,North,360,13.1,20.1,39,0.00,,,0.01,Rainwise IP-100,2013-04-17 15:38:00,
2013-04-17 11:44:00,52.9,29.0,29.79,North,360,9.6,18.2,39,0.00,,,0.01,Rainwise IP-100,2013-04-17 15:44:00,
2013-04-17 11:49:00,53.1,28.0,29.79,NNE,22,6.5,17.7,38,0.00,,,0.01,Rainwise IP-100,2013-04-17 15:49:00,
2013-04-17 11:54:00,53.3,29.0,29.80,NNE,22,16.3,21.0,38,0.00,,,0.01,Rainwise IP-100,2013-04-17 15:54:00,
2013-04-17 11:59:00,53.5,29.0,29.79,North,360,9.3,18.9,38,0.00,,,0.01,Rainwise IP-100,2013-04-17 15:59:00,
2013-04-17 12:04:00,53.4,29.0,29.80,SE,135,4.2,18.9,38,0.00,,,0.01,Rainwise IP-100,2013-04-17 16:04:00,
2013-04-17 12:09:00,53.7,29.0,29.79,NNE,22,7.5,17.7,38,0.00,,,0.01,Rainwise IP-100,2013-04-17 16:09:00,
2013-04-17 12:11:00,53.9,29.0,29.80,North,360,18.9,18.9,38,0.00,,,0.01,Rainwise IP-100,2013-04-17 16:11:00,
2013-04-17 12:16:00,54.1,29.0,29.79,North,360,13.3,18.9,38,0.00,,,0.01,Rainwise IP-100,2013-04-17 16:16:00,
2013-04-17 12:21:00,54.0,29.0,29.79,NNE,22,10.7,20.5,38,0.00,,,0.01,Rainwise IP-100,2013-04-17 16:21:00,
2013-04-17 12:26:00,54.1,29.0,29.79,NNE,22,9.1,16.6,38,0.00,,,0.01,Rainwise IP-100,2013-04-17 16:26:00,
2013-04-17 12:32:00,54.4,29.0,29.79,NNE,22,10.3,16.8,38,0.00,,,0.01,Rainwise IP-100,2013-04-17 16:32:00,
2013-04-17 12:37:00,54.7,29.0,29.80,NNW,337,10.3,16.8,38,0.00,,,0.01,Rainwise IP-100,2013-04-17 16:37:00,
2013-04-17 12:42:00,54.8,29.0,29.79,NNW,337,11.7,18.7,37,0.00,,,0.01,Rainwise IP-100,2013-04-17 16:42:00,
2013-04-17 12:47:00,54.6,28.0,29.80,NNE,22,8.9,18.0,36,0.00,,,0.01,Rainwise IP-100,2013-04-17 16:47:00,
2013-04-17 12:52:00,54.4,29.0,29.79,ENE,67,9.8,15.4,37,0.00,,,0.01,Rainwise IP-100,2013-04-17 16:52:00,
2013-04-17 12:57:00,54.6,29.0,29.79,NNE,22,10.5,21.2,37,0.00,,,0.01,Rainwise IP-100,2013-04-17 16:57:00,
2013-04-17 13:02:00,54.7,29.0,29.80,NNE,22,6.5,20.1,37,0.00,,,0.01,Rainwise IP-100,2013-04-17 17:02:00,
2013-04-17 13:07:00,54.8,29.0,29.78,NNW,337,10.3,17.7,37,0.00,,,0.01,Rainwise IP-100,2013-04-17 17:07:00,
2013-04-17 13:12:00,54.8,29.0,29.79,NNW,337,18.0,19.1,37,0.00,,,0.01,Rainwise IP-100,2013-04-17 17:12:00,
2013-04-17 13:17:00,54.6,29.0,29.79,ENE,67,3.0,18.7,37,0.00,,,0.01,Rainwise IP-100,2013-04-17 17:17:00,
2013-04-17 13:22:00,54.9,29.0,29.79,North,360,7.0,11.0,36,0.00,,,0.01,Rainwise IP-100,2013-04-17 17:22:00,
2013-04-17 13:27:00,55.3,29.0,29.79,NNW,337,12.6,16.1,36,0.00,,,0.01,Rainwise IP-100,2013-04-17 17:27:00,
2013-04-17 13:32:00,55.5,29.0,29.79,NNE,22,6.5,13.3,36,0.00,,,0.01,Rainwise IP-100,2013-04-17 17:32:00,
2013-04-17 13:37:00,55.9,29.0,29.79,NNE,22,3.7,12.4,36,0.00,,,0.01,Rainwise IP-100,2013-04-17 17:37:00,
2013-04-17 13:42:00,56.3,31.0,29.80,NE,45,3.3,11.7,37,0.00,,,0.01,Rainwise IP-100,2013-04-17 17:42:00,
2013-04-17 13:48:00,56.8,31.0,29.80,NNE,22,5.8,17.0,36,0.00,,,0.01,Rainwise IP-100,2013-04-17 17:48:00,
2013-04-17 13:53:00,56.9,31.0,29.80,NNE,22,6.5,13.5,36,0.00,,,0.01,Rainwise IP-100,2013-04-17 17:53:00,
2013-04-17 13:58:00,56.4,29.0,29.80,NNE,22,2.1,14.0,35,0.00,,,0.01,Rainwise IP-100,2013-04-17 17:58:00,
2013-04-17 14:03:00,56.4,29.0,29.80,North,360,4.4,11.9,35,0.00,,,0.01,Rainwise IP-100,2013-04-17 18:03:00,
2013-04-17 14:08:00,56.8,29.0,29.80,NNE,22,7.7,12.1,35,0.00,,,0.01,Rainwise IP-100,2013-04-17 18:08:00,
2013-04-17 14:13:00,56.6,29.0,29.80,NNW,337,14.0,21.9,35,0.00,,,0.01,Rainwise IP-100,2013-04-17 18:13:00,
2013-04-17 14:18:00,56.5,29.0,29.80,NNW,337,12.8,20.1,34,0.00,,,0.01,Rainwise IP-100,2013-04-17 18:18:00,
2013-04-17 14:23:00,56.7,28.0,29.80,NNW,337,13.1,18.2,33,0.00,,,0.01,Rainwise IP-100,2013-04-17 18:23:00,
2013-04-17 14:28:00,56.7,28.0,29.80,ESE,112,4.9,18.4,33,0.00,,,0.01,Rainwise IP-100,2013-04-17 18:28:00,
2013-04-17 14:33:00,56.6,28.0,29.80,ENE,67,2.6,20.1,33,0.00,,,0.01,Rainwise IP-100,2013-04-17 18:33:00,
2013-04-17 14:38:00,56.5,28.0,29.81,NNE,22,9.3,18.7,33,0.00,,,0.01,Rainwise IP-100,2013-04-17 18:38:00,
2013-04-17 14:43:00,56.4,28.0,29.81,ENE,67,5.8,19.6,32,0.00,,,0.01,Rainwise IP-100,2013-04-17 18:43:00,
2013-04-17 14:48:00,56.3,28.0,29.81,North,360,4.9,20.1,32,0.00,,,0.01,Rainwise IP-100,2013-04-17 18:48:00,
2013-04-17 14:53:00,56.6,28.0,29.81,NNE,22,6.5,16.8,32,0.00,,,0.01,Rainwise IP-100,2013-04-17 18:53:00,
2013-04-17 14:58:00,56.9,28.0,29.82,NE,45,7.9,14.9,32,0.00,,,0.01,Rainwise IP-100,2013-04-17 18:58:00,
2013-04-17 15:04:00,57.0,28.0,29.82,North,360,6.8,15.9,32,0.00,,,0.01,Rainwise IP-100,2013-04-17 19:04:00,
2013-04-17 15:09:00,57.0,28.0,29.82,NNW,337,5.4,16.3,31,0.00,,,0.01,Rainwise IP-100,2013-04-17 19:09:00,
2013-04-17 15:14:00,57.1,28.0,29.81,ENE,67,3.7,13.1,31,0.00,,,0.01,Rainwise IP-100,2013-04-17 19:14:00,
2013-04-17 15:19:00,57.2,28.0,29.82,NE,45,6.5,13.3,31,0.00,,,0.01,Rainwise IP-100,2013-04-17 19:19:00,
2013-04-17 15:24:00,57.1,28.0,29.82,NNE,22,12.4,16.1,31,0.00,,,0.01,Rainwise IP-100,2013-04-17 19:24:00,
2013-04-17 15:29:00,57.2,28.0,29.83,NNW,337,1.2,17.5,32,0.00,,,0.01,Rainwise IP-100,2013-04-17 19:29:00,
2013-04-17 15:34:00,57.0,28.0,29.83,North,360,7.5,14.5,32,0.00,,,0.01,Rainwise IP-100,2013-04-17 19:34:00,
2013-04-17 15:39:00,56.8,28.0,29.82,NE,45,5.4,9.1,32,0.00,,,0.01,Rainwise IP-100,2013-04-17 19:39:00,
2013-04-17 15:44:00,57.2,28.0,29.82,NNW,337,10.3,10.3,32,0.00,,,0.01,Rainwise IP-100,2013-04-17 19:44:00,
2013-04-17 15:49:00,57.3,28.0,29.82,NNW,337,11.7,15.6,32,0.00,,,0.01,Rainwise IP-100,2013-04-17 19:49:00,
2013-04-17 15:54:00,57.5,28.0,29.82,NNE,22,5.1,14.5,32,0.00,,,0.01,Rainwise IP-100,2013-04-17 19:54:00,
2013-04-17 15:59:00,57.5,28.0,29.82,NNE,22,7.7,15.9,32,0.00,,,0.01,Rainwise IP-100,2013-04-17 19:59:00,
2013-04-17 16:04:00,57.2,28.0,29.82,NNW,337,12.6,14.2,32,0.00,,,0.01,Rainwise IP-100,2013-04-17 20:04:00,
2013-04-17 16:09:00,57.0,28.0,29.82,NE,45,8.9,14.2,32,0.00,,,0.01,Rainwise IP-100,2013-04-17 20:09:00,
2013-04-17 16:14:00,57.0,28.0,29.82,North,360,11.9,19.8,32,0.00,,,0.01,Rainwise IP-100,2013-04-17 20:14:00,
2013-04-17 16:20:00,57.1,28.0,29.82,NNE,22,3.7,18.2,32,0.00,,,0.01,Rainwise IP-100,2013-04-17 20:20:00,
2013-04-17 16:25:00,57.1,28.0,29.82,NE,45,6.1,13.8,32,0.00,,,0.01,Rainwise IP-100,2013-04-17 20:25:00,
2013-04-17 16:30:00,57.2,29.0,29.83,NNE,22,6.1,9.1,33,0.00,,,0.01,Rainwise IP-100,2013-04-17 20:30:00,
2013-04-17 16:35:00,57.4,28.0,29.83,NNW,337,12.1,15.6,32,0.00,,,0.01,Rainwise IP-100,2013-04-17 20:35:00,
2013-04-17 16:40:00,57.4,28.0,29.83,North,360,5.4,14.5,32,0.00,,,0.01,Rainwise IP-100,2013-04-17 20:40:00,
2013-04-17 16:45:00,57.3,29.0,29.83,NNE,22,10.3,14.7,33,0.00,,,0.01,Rainwise IP-100,2013-04-17 20:45:00,
2013-04-17 16:50:00,57.3,29.0,29.83,ENE,67,5.1,14.0,33,0.00,,,0.01,Rainwise IP-100,2013-04-17 20:50:00,
2013-04-17 16:55:00,57.2,29.0,29.84,North,360,12.1,12.1,33,0.00,,,0.01,Rainwise IP-100,2013-04-17 20:55:00,
2013-04-17 17:00:00,56.9,29.0,29.84,NNW,337,10.5,15.6,33,0.00,,,0.01,Rainwise IP-100,2013-04-17 21:00:00,
2013-04-17 17:05:00,56.8,29.0,29.83,North,360,9.3,17.3,33,0.00,,,0.01,Rainwise IP-100,2013-04-17 21:05:00,
2013-04-17 17:10:00,56.9,29.0,29.84,NNW,337,9.3,14.0,33,0.00,,,0.01,Rainwise IP-100,2013-04-17 21:10:00,
2013-04-17 17:15:00,57.1,29.0,29.84,NNE,22,9.8,14.5,33,0.00,,,0.01,Rainwise IP-100,2013-04-17 21:15:00,
2013-04-17 17:20:00,56.9,29.0,29.84,NNE,22,13.3,18.0,33,0.00,,,0.01,Rainwise IP-100,2013-04-17 21:20:00,
2013-04-17 17:25:00,56.3,28.0,29.84,NNE,22,8.6,15.2,33,0.00,,,0.01,Rainwise IP-100,2013-04-17 21:25:00,
2013-04-17 17:30:00,55.9,28.0,29.85,NNW,337,12.6,15.2,33,0.00,,,0.01,Rainwise IP-100,2013-04-17 21:30:00,
2013-04-17 17:36:00,56.2,28.0,29.85,North,360,5.6,13.8,33,0.00,,,0.01,Rainwise IP-100,2013-04-17 21:36:00,
2013-04-17 17:41:00,56.1,28.0,29.84,ENE,67,4.7,16.6,33,0.00,,,0.01,Rainwise IP-100,2013-04-17 21:41:00,
2013-04-17 17:46:00,55.9,26.0,29.85,NNE,22,14.0,19.6,32,0.00,,,0.01,Rainwise IP-100,2013-04-17 21:46:00,
2013-04-17 17:51:00,55.7,26.0,29.86,North,360,12.1,18.0,32,0.00,,,0.01,Rainwise IP-100,2013-04-17 21:51:00,
2013-04-17 17:56:00,55.6,26.0,29.86,NNW,337,7.5,13.8,32,0.00,,,0.01,Rainwise IP-100,2013-04-17 21:56:00,
2013-04-17 18:01:00,55.6,26.0,29.86,NNW,337,5.4,17.3,32,0.00,,,0.01,Rainwise IP-100,2013-04-17 22:01:00,
2013-04-17 18:06:00,55.3,26.0,29.86,NNE,22,8.2,12.1,32,0.00,,,0.01,Rainwise IP-100,2013-04-17 22:06:00,
2013-04-17 18:11:00,54.9,26.0,29.87,NNW,337,3.7,11.4,32,0.00,,,0.01,Rainwise IP-100,2013-04-17 22:11:00,
2013-04-17 18:16:00,54.5,26.0,29.87,North,360,8.4,10.7,32,0.00,,,0.01,Rainwise IP-100,2013-04-17 22:16:00,
2013-04-17 18:21:00,54.3,26.0,29.87,NNE,22,8.9,11.0,33,0.00,,,0.01,Rainwise IP-100,2013-04-17 22:21:00,
2013-04-17 18:26:00,54.1,24.0,29.87,NNE,22,7.2,13.3,32,0.00,,,0.01,Rainwise IP-100,2013-04-17 22:26:00,
2013-04-17 18:31:00,53.9,24.0,29.87,WNW,292,2.1,7.5,32,0.00,,,0.01,Rainwise IP-100,2013-04-17 22:31:00,
2013-04-17 18:36:00,53.6,24.0,29.87,NNW,337,4.0,11.4,32,0.00,,,0.01,Rainwise IP-100,2013-04-17 22:36:00,
2013-04-17 18:41:00,53.5,26.0,29.88,NNW,337,6.3,9.8,33,0.00,,,0.01,Rainwise IP-100,2013-04-17 22:41:00,
2013-04-17 18:46:00,53.4,26.0,29.87,NNW,337,3.5,10.0,33,0.00,,,0.01,Rainwise IP-100,2013-04-17 22:46:00,
2013-04-17 18:52:00,53.1,26.0,29.87,NNW,337,7.5,10.5,34,0.00,,,0.01,Rainwise IP-100,2013-04-17 22:52:00,
2013-04-17 18:57:00,52.8,26.0,29.87,NNW,337,3.7,9.3,34,0.00,,,0.01,Rainwise IP-100,2013-04-17 22:57:00,
2013-04-17 19:02:00,52.6,26.0,29.88,NNW,337,0.0,6.5,34,0.00,,,0.01,Rainwise IP-100,2013-04-17 23:02:00,
2013-04-17 19:07:00,52.3,26.0,29.88,NNE,22,2.3,4.0,35,0.00,,,0.01,Rainwise IP-100,2013-04-17 23:07:00,
2013-04-17 19:12:00,51.9,26.0,29.88,NW,315,2.1,3.7,36,0.00,,,0.01,Rainwise IP-100,2013-04-17 23:12:00,
2013-04-17 19:17:00,51.7,26.0,29.88,NNW,337,0.0,3.0,36,0.00,,,0.01,Rainwise IP-100,2013-04-17 23:17:00,
2013-04-17 19:22:00,51.4,26.0,29.89,NNW,337,1.6,4.4,37,0.00,,,0.01,Rainwise IP-100,2013-04-17 23:22:00,
2013-04-17 19:27:00,51.0,26.0,29.89,NNW,337,0.0,3.0,38,0.00,,,0.01,Rainwise IP-100,2013-04-17 23:27:00,
2013-04-17 19:32:00,50.5,26.0,29.90,NNW,337,1.4,2.8,39,0.00,,,0.01,Rainwise IP-100,2013-04-17 23:32:00,
2013-04-17 19:37:00,50.1,26.0,29.90,NNW,337,0.0,2.1,40,0.00,,,0.01,Rainwise IP-100,2013-04-17 23:37:00,
2013-04-17 19:42:00,49.3,26.0,29.90,NNW,337,3.0,3.3,41,0.00,,,0.01,Rainwise IP-100,2013-04-17 23:42:00,
2013-04-17 19:47:00,48.9,26.0,29.90,WNW,292,1.2,3.7,41,0.00,,,0.01,Rainwise IP-100,2013-04-17 23:47:00,
2013-04-17 19:52:00,49.0,26.0,29.90,NW,315,0.0,2.8,41,0.00,,,0.01,Rainwise IP-100,2013-04-17 23:52:00,
2013-04-17 19:57:00,48.7,28.0,29.90,NW,315,0.0,1.4,42,0.00,,,0.01,Rainwise IP-100,2013-04-17 23:57:00,
2013-04-17 20:02:00,48.2,28.0,29.90,NNW,337,1.9,4.0,43,0.00,,,0.01,Rainwise IP-100,2013-04-18 00:02:00,
2013-04-17 20:08:00,48.2,28.0,29.90,NNW,337,4.0,6.3,43,0.00,,,0.01,Rainwise IP-100,2013-04-18 00:08:00,
2013-04-17 20:13:00,48.2,28.0,29.90,NNW,337,2.1,4.9,43,0.00,,,0.01,Rainwise IP-100,2013-04-18 00:13:00,
2013-04-17 20:18:00,47.8,28.0,29.91,NNW,337,1.2,4.2,44,0.00,,,0.01,Rainwise IP-100,2013-04-18 00:18:00,
2013-04-17 20:23:00,47.4,28.0,29.91,North,360,2.3,2.6,44,0.00,,,0.01,Rainwise IP-100,2013-04-18 00:23:00,
2013-04-17 20:28:00,47.2,26.0,29.91,NW,315,4.7,4.9,45,0.00,,,0.01,Rainwise IP-100,2013-04-18 00:28:00,
2013-04-17 20:33:00,47.2,26.0,29.91,NNW,337,3.7,6.5,45,0.00,,,0.01,Rainwise IP-100,2013-04-18 00:33:00,
2013-04-17 20:38:00,47.1,26.0,29.91,NW,315,4.4,5.4,45,0.00,,,0.01,Rainwise IP-100,2013-04-18 00:38:00,
2013-04-17 20:43:00,47.0,26.0,29.91,NNE,22,0.0,4.4,45,0.00,,,0.01,Rainwise IP-100,2013-04-18 00:43:00,
2013-04-17 20:48:00,45.7,28.0,29.91,NNE,22,0.0,1.2,48,0.00,,,0.01,Rainwise IP-100,2013-04-18 00:48:00,
2013-04-17 20:53:00,44.7,29.0,29.91,NNE,22,0.0,0.0,52,0.00,,,0.01,Rainwise IP-100,2013-04-18 00:53:00,
2013-04-17 20:58:00,44.1,29.0,29.91,NNE,22,2.6,2.6,54,0.00,,,0.01,Rainwise IP-100,2013-04-18 00:58:00,
2013-04-17 21:03:00,43.5,29.0,29.91,North,360,0.0,4.0,55,0.00,,,0.01,Rainwise IP-100,2013-04-18 01:03:00,
2013-04-17 21:08:00,43.2,28.0,29.91,NNW,337,3.7,3.7,55,0.00,,,0.01,Rainwise IP-100,2013-04-18 01:08:00,
2013-04-17 21:13:00,43.2,28.0,29.91,NNW,337,3.0,4.4,55,0.00,,,0.01,Rainwise IP-100,2013-04-18 01:13:00,
2013-04-17 21:18:00,43.4,28.0,29.90,NNW,337,4.2,5.1,54,0.00,,,0.01,Rainwise IP-100,2013-04-18 01:18:00,
2013-04-17 21:24:00,43.5,29.0,29.90,NNW,337,2.3,5.6,54,0.00,,,0.01,Rainwise IP-100,2013-04-18 01:24:00,
2013-04-17 21:29:00,43.1,28.0,29.90,NNW,337,4.7,6.3,54,0.00,,,0.01,Rainwise IP-100,2013-04-18 01:29:00,
2013-04-17 21:34:00,42.4,28.0,29.90,NNE,22,4.2,7.0,56,0.00,,,0.01,Rainwise IP-100,2013-04-18 01:34:00,
2013-04-17 21:39:00,42.1,28.0,29.90,NE,45,1.2,4.9,57,0.00,,,0.01,Rainwise IP-100,2013-04-18 01:39:00,
2013-04-17 21:44:00,42.1,29.0,29.90,NNW,337,0.0,5.8,58,0.00,,,0.01,Rainwise IP-100,2013-04-18 01:44:00,
2013-04-17 21:49:00,42.0,29.0,29.90,WSW,247,1.6,3.3,58,0.00,,,0.01,Rainwise IP-100,2013-04-18 01:49:00,
2013-04-17 21:54:00,42.0,29.0,29.89,WSW,247,0.0,1.9,58,0.00,,,0.01,Rainwise IP-100,2013-04-18 01:54:00,
2013-04-17 21:59:00,41.7,29.0,29.90,NW,315,1.9,2.3,58,0.00,,,0.01,Rainwise IP-100,2013-04-18 01:59:00,
2013-04-17 22:04:00,41.0,28.0,29.90,NW,315,2.6,2.6,59,0.00,,,0.01,Rainwise IP-100,2013-04-18 02:04:00,
2013-04-17 22:09:00,40.7,29.0,29.90,NNE,22,0.0,3.0,61,0.00,,,0.01,Rainwise IP-100,2013-04-18 02:09:00,
2013-04-17 22:14:00,40.7,29.0,29.90,NNE,22,1.6,3.0,62,0.00,,,0.01,Rainwise IP-100,2013-04-18 02:14:00,
2013-04-17 22:19:00,40.2,29.0,29.90,NNE,22,0.0,2.3,64,0.00,,,0.01,Rainwise IP-100,2013-04-18 02:19:00,
2013-04-17 22:24:00,39.8,31.0,29.90,NNE,22,1.6,2.1,66,0.00,,,0.01,Rainwise IP-100,2013-04-18 02:24:00,
2013-04-17 22:29:00,39.5,31.0,29.89,NNE,22,4.4,4.4,67,0.00,,,0.01,Rainwise IP-100,2013-04-18 02:29:00,
2013-04-17 22:34:00,39.2,29.0,29.90,North,360,2.8,4.9,68,0.00,,,0.01,Rainwise IP-100,2013-04-18 02:34:00,
2013-04-17 22:40:00,39.4,29.0,29.90,NNW,337,0.0,4.2,67,0.00,,,0.01,Rainwise IP-100,2013-04-18 02:40:00,
2013-04-17 22:45:00,39.6,31.0,29.89,NNW,337,0.0,1.9,66,0.00,,,0.01,Rainwise IP-100,2013-04-18 02:45:00,
2013-04-17 22:50:00,39.3,29.0,29.89,NNW,337,1.4,4.0,66,0.00,,,0.01,Rainwise IP-100,2013-04-18 02:50:00,
2013-04-17 22:55:00,39.1,29.0,29.89,NNW,337,0.0,3.5,66,0.00,,,0.01,Rainwise IP-100,2013-04-18 02:55:00,
2013-04-17 23:00:00,39.1,29.0,29.90,WSW,247,0.0,2.3,66,0.00,,,0.01,Rainwise IP-100,2013-04-18 03:00:00,
2013-04-17 23:05:00,38.8,29.0,29.90,WSW,247,0.0,0.0,67,0.00,,,0.01,Rainwise IP-100,2013-04-18 03:05:00,
2013-04-17 23:10:00,38.3,29.0,29.90,SSW,202,1.4,2.8,68,0.00,,,0.01,Rainwise IP-100,2013-04-18 03:10:00,
2013-04-17 23:15:00,38.0,29.0,29.91,SSW,202,2.8,3.7,69,0.00,,,0.01,Rainwise IP-100,2013-04-18 03:15:00,
2013-04-17 23:20:00,37.6,31.0,29.92,SSW,202,0.0,4.2,72,0.00,,,0.01,Rainwise IP-100,2013-04-18 03:20:00,
2013-04-17 23:25:00,37.5,31.0,29.92,WSW,247,0.0,2.6,74,0.00,,,0.01,Rainwise IP-100,2013-04-18 03:25:00,
2013-04-17 23:30:00,37.5,31.0,29.91,WSW,247,0.0,2.1,74,0.00,,,0.01,Rainwise IP-100,2013-04-18 03:30:00,
2013-04-17 23:35:00,37.5,31.0,29.92,WNW,292,1.4,1.9,73,0.00,,,0.01,Rainwise IP-100,2013-04-18 03:35:00,
2013-04-17 23:40:00,37.4,29.0,29.92,NW,315,0.0,1.9,71,0.00,,,0.01,Rainwise IP-100,2013-04-18 03:40:00,
2013-04-17 23:45:00,36.9,29.0,29.92,NW,315,0.0,1.2,71,0.00,,,0.01,Rainwise IP-100,2013-04-18 03:45:00,
2013-04-17 23:51:00,36.6,29.0,29.92,NW,315,1.9,2.3,73,0.00,,,0.01,Rainwise IP-100,2013-04-18 03:51:00,
2013-04-17 23:56:00,36.3,28.0,29.92,NE,45,1.4,3.3,73,0.00,,,0.01,Rainwise IP-100,2013-04-18 03:56:00,